Location: ???????
(55.4362°N, 38.1183°E)
Time: 02:21:03
(UTC+00:00)

METEOR M2 - Pass Details

Date: 28 November 2021
Orbit: 818 x 827 km, 98.4° (Epoch: 28 January)

Event Time Altitude Azimuth Distance (km) Brightness Sun altitude
Rises 03:08:46 0° 28° (NNE) 3,374 ? -18.4°
Reaches altitude 10° 03:12:56 10° 59° (ENE) 2,431 ? -17.8°
Maximum altitude 03:14:52 12° 80° (E) 2,300 ? -17.5°
Drops below altitude 10° 03:16:46 10° 101° (ESE) 2,423 ? -17.2°
Sets 03:20:54 0° 133° (SE) 3,347 ? -16.7°
